WMT164 EGGW-LIMC

Flight info

Callsign WMT164
Flight time 1h 34m
Altitude 35000
Route MATCH Q295 BRAIN P44 DAGGA M85 ITVIP L10 DVR UL9 KONAN DCT KOK DCT CIV DCT SUTAL DCT GTQ DCT OBORN DCT DEVDI/N0439F310 DCT BASGO Z424 RIXUV
Aircraft A321/M-SDE1E2E3FGIJ1J4RWXY/LB1

Departure

Time 2026-05-05 16:18
Airport London Luton Airport (EGGW)

Arrival

Time 2026-05-05 17:52
Airport Milan Malpensa International Airport (LIMC)
Time Latitude Longitude Altitude Speed Heading
2026-05-05 15:47 51.88100 -0.37280 509 ft 0 kts 342°
2026-05-05 16:07 51.88081 -0.37270 508 ft 4 kts 341°
2026-05-05 16:07 51.88061 -0.37259 508 ft 4 kts 339°
2026-05-05 16:07 51.88042 -0.37237 508 ft 4 kts 284°
2026-05-05 16:07 51.88044 -0.37199 508 ft 4 kts 243°
2026-05-05 16:08 51.88061 -0.37170 508 ft 4 kts 197°
2026-05-05 16:08 51.88086 -0.37168 509 ft 3 kts 162°
2026-05-05 16:08 51.88106 -0.37179 510 ft 1 kts 161°
2026-05-05 16:10 51.88103 -0.37178 510 ft 3 kts 161°
2026-05-05 16:11 51.88064 -0.37157 508 ft 8 kts 161°
2026-05-05 16:11 51.87875 -0.37056 510 ft 10 kts 162°
2026-05-05 16:12 51.87822 -0.37028 513 ft 6 kts 162°
2026-05-05 16:12 51.87772 -0.37002 517 ft 4 kts 162°
2026-05-05 16:13 51.87611 -0.37081 522 ft 14 kts 255°
2026-05-05 16:13 51.87583 -0.37243 522 ft 15 kts 255°
2026-05-05 16:13 51.87579 -0.37417 523 ft 15 kts 252°
2026-05-05 16:14 51.87476 -0.37699 523 ft 15 kts 255°
2026-05-05 16:14 51.87394 -0.38042 523 ft 4 kts 217°
2026-05-05 16:15 51.87383 -0.38054 523 ft 5 kts 212°
2026-05-05 16:15 51.87251 -0.38130 523 ft 13 kts 215°
2026-05-05 16:16 51.87198 -0.38329 520 ft 2 kts 112°
2026-05-05 16:16 51.87217 -0.38260 522 ft 0 kts 74°
2026-05-05 16:17 51.87250 -0.38074 524 ft 52 kts 74°
2026-05-05 16:17 51.87413 -0.37129 522 ft 120 kts 75°
2026-05-05 16:18 51.87960 -0.33838 1483 ft 155 kts 72°
2026-05-05 16:18 51.88249 -0.32161 2113 ft 158 kts 72°
2026-05-05 16:18 51.88159 -0.28180 2539 ft 207 kts 104°
2026-05-05 16:19 51.87706 -0.25835 2703 ft 231 kts 104°
2026-05-05 16:19 51.87210 -0.23217 3008 ft 253 kts 105°
2026-05-05 16:19 51.86154 -0.17653 4534 ft 263 kts 105°
2026-05-05 16:20 51.85052 -0.11927 6141 ft 270 kts 105°
2026-05-05 16:20 51.83921 -0.06025 7588 ft 279 kts 105°
2026-05-05 16:21 51.82758 0.00059 8982 ft 287 kts 106°
2026-05-05 16:22 51.80911 0.09671 10349 ft 326 kts 107°
2026-05-05 16:22 51.79493 0.16976 11178 ft 348 kts 107°
2026-05-05 16:23 51.78259 0.24585 12492 ft 353 kts 95°
2026-05-05 16:23 51.78221 0.28545 13163 ft 354 kts 84°
2026-05-05 16:23 51.78865 0.36472 14416 ft 359 kts 82°
2026-05-05 16:24 51.79185 0.40490 14999 ft 362 kts 82°
2026-05-05 16:24 51.79504 0.44543 15583 ft 365 kts 82°
2026-05-05 16:24 51.80146 0.52761 16726 ft 372 kts 82°
2026-05-05 16:25 51.80467 0.56923 17298 ft 375 kts 82°
2026-05-05 16:25 51.81125 0.65374 18337 ft 384 kts 83°
2026-05-05 16:25 51.81278 0.69692 18790 ft 388 kts 95°
2026-05-05 16:26 51.79382 0.77780 19726 ft 393 kts 128°
2026-05-05 16:26 51.74976 0.82932 20713 ft 399 kts 161°
2026-05-05 16:27 51.72324 0.84273 21232 ft 401 kts 163°
2026-05-05 16:27 51.69646 0.85580 21747 ft 403 kts 163°
2026-05-05 16:27 51.66956 0.86887 22264 ft 405 kts 163°
2026-05-05 16:27 51.64248 0.88201 22739 ft 407 kts 164°
2026-05-05 16:28 51.61529 0.89517 23212 ft 410 kts 163°
2026-05-05 16:28 51.58790 0.90841 23647 ft 412 kts 164°
2026-05-05 16:28 51.56040 0.92171 24040 ft 414 kts 163°
2026-05-05 16:28 51.53278 0.93510 24471 ft 415 kts 163°
2026-05-05 16:29 51.50510 0.94849 24862 ft 416 kts 163°
2026-05-05 16:29 51.47739 0.96186 25292 ft 416 kts 164°
2026-05-05 16:29 51.44964 0.97525 25757 ft 416 kts 164°
2026-05-05 16:29 51.42191 0.98861 26134 ft 418 kts 164°
2026-05-05 16:30 51.39394 1.00211 26483 ft 420 kts 164°
2026-05-05 16:30 51.36548 1.01584 26877 ft 422 kts 164°
2026-05-05 16:30 51.33781 1.02965 27188 ft 425 kts 160°
2026-05-05 16:30 51.31096 1.04962 27545 ft 428 kts 151°
2026-05-05 16:31 51.28654 1.07685 27921 ft 431 kts 141°
2026-05-05 16:31 51.26554 1.11033 28275 ft 434 kts 131°
2026-05-05 16:31 51.24800 1.14973 28593 ft 438 kts 124°
2026-05-05 16:31 51.23151 1.19065 28961 ft 439 kts 124°
2026-05-05 16:32 51.21489 1.23162 29308 ft 440 kts 125°
2026-05-05 16:32 51.19819 1.27258 29674 ft 441 kts 125°
2026-05-05 16:32 51.18193 1.31426 29991 ft 445 kts 120°
2026-05-05 16:32 51.16929 1.35945 30263 ft 449 kts 111°
2026-05-05 16:33 51.16131 1.40770 30540 ft 453 kts 101°
2026-05-05 16:33 51.15802 1.45772 30906 ft 454 kts 96°
2026-05-05 16:33 51.15571 1.50793 31279 ft 454 kts 96°
2026-05-05 16:33 51.15332 1.55793 31641 ft 453 kts 97°
2026-05-05 16:34 51.15087 1.60788 32007 ft 452 kts 97°
2026-05-05 16:34 51.14835 1.65787 32373 ft 452 kts 97°
2026-05-05 16:34 51.14585 1.70772 32722 ft 451 kts 97°
2026-05-05 16:34 51.14333 1.75755 33072 ft 451 kts 97°
2026-05-05 16:35 51.14080 1.80728 33424 ft 450 kts 97°
2026-05-05 16:35 51.13825 1.85688 33761 ft 450 kts 97°
2026-05-05 16:35 51.13567 1.90659 34068 ft 450 kts 97°
2026-05-05 16:35 51.13309 1.95612 34385 ft 448 kts 97°
2026-05-05 16:36 51.13051 2.00551 34673 ft 448 kts 97°
2026-05-05 16:36 51.12792 2.05494 34868 ft 449 kts 97°
2026-05-05 16:36 51.12271 2.15354 34916 ft 445 kts 97°
2026-05-05 16:37 51.11738 2.25163 34916 ft 445 kts 97°
2026-05-05 16:37 51.11195 2.34908 34912 ft 445 kts 98°
2026-05-05 16:38 51.10644 2.44684 34909 ft 443 kts 98°
2026-05-05 16:38 51.10091 2.54429 34910 ft 442 kts 98°
2026-05-05 16:39 51.09053 2.64008 34917 ft 437 kts 111°
2026-05-05 16:39 51.06307 2.72521 34916 ft 432 kts 127°
2026-05-05 16:40 51.02896 2.80377 34916 ft 432 kts 127°
2026-05-05 16:40 50.99485 2.88237 34923 ft 432 kts 127°
2026-05-05 16:41 50.96069 2.96088 34926 ft 432 kts 127°
2026-05-05 16:41 50.92650 3.03914 34915 ft 432 kts 127°
2026-05-05 16:42 50.89224 3.11723 34908 ft 431 kts 127°
2026-05-05 16:42 50.85799 3.19514 34902 ft 431 kts 127°
2026-05-05 16:43 50.82368 3.27298 34909 ft 431 kts 127°
2026-05-05 16:43 50.78936 3.35058 34901 ft 430 kts 127°
2026-05-05 16:44 50.75506 3.42796 34903 ft 430 kts 127°
2026-05-05 16:44 50.72072 3.50521 34898 ft 429 kts 127°
2026-05-05 16:45 50.68656 3.58168 34904 ft 429 kts 128°
2026-05-05 16:45 50.65193 3.65911 34903 ft 429 kts 128°
2026-05-05 16:46 50.61775 3.73534 34885 ft 429 kts 128°
2026-05-05 16:46 50.58328 3.81184 34894 ft 428 kts 127°
2026-05-05 16:47 50.54950 3.88877 34897 ft 427 kts 125°
2026-05-05 16:47 50.51749 3.96747 34889 ft 427 kts 124°
2026-05-05 16:48 50.48568 4.04615 34879 ft 427 kts 125°
2026-05-05 16:48 50.45340 4.12429 34883 ft 427 kts 125°
2026-05-05 16:49 50.42076 4.20203 34881 ft 426 kts 126°
2026-05-05 16:49 50.38821 4.27955 34886 ft 426 kts 125°
2026-05-05 16:50 50.35568 4.35709 34883 ft 426 kts 126°
2026-05-05 16:50 50.32315 4.43449 34890 ft 425 kts 125°
2026-05-05 16:51 50.29057 4.51178 34870 ft 425 kts 126°
2026-05-05 16:51 50.25795 4.58875 34866 ft 425 kts 126°
2026-05-05 16:52 50.22533 4.66554 34870 ft 424 kts 126°
2026-05-05 16:52 50.19263 4.74230 34875 ft 423 kts 126°
2026-05-05 16:53 50.16009 4.81854 34871 ft 422 kts 126°
2026-05-05 16:53 50.12748 4.89463 34860 ft 422 kts 126°
2026-05-05 16:54 50.09486 4.97050 34850 ft 421 kts 126°
2026-05-05 16:54 50.06221 5.04625 34848 ft 421 kts 126°
2026-05-05 16:55 50.02975 5.12140 34837 ft 421 kts 126°
2026-05-05 16:55 49.99709 5.19692 34848 ft 421 kts 126°
2026-05-05 16:56 49.96962 5.26008 34848 ft 421 kts 126°
2026-05-05 16:56 49.93676 5.33523 34848 ft 420 kts 126°
2026-05-05 16:57 49.90422 5.40979 34851 ft 420 kts 126°
2026-05-05 16:57 49.87143 5.48482 34837 ft 420 kts 126°
2026-05-05 16:58 49.83862 5.55947 34842 ft 419 kts 126°
2026-05-05 16:58 49.80574 5.63393 34848 ft 419 kts 126°
2026-05-05 16:59 49.77284 5.70836 34837 ft 419 kts 126°
2026-05-05 16:59 49.73993 5.78266 34851 ft 419 kts 126°
2026-05-05 17:00 49.70698 5.85695 34852 ft 419 kts 126°
2026-05-05 17:00 49.67399 5.93100 34826 ft 419 kts 126°
2026-05-05 17:01 49.64091 6.00498 34830 ft 419 kts 126°
2026-05-05 17:01 49.60773 6.07894 34836 ft 419 kts 126°
2026-05-05 17:02 49.57452 6.15287 34844 ft 420 kts 126°
2026-05-05 17:02 49.54126 6.22682 34836 ft 420 kts 126°
2026-05-05 17:03 49.50804 6.30028 34826 ft 421 kts 126°
2026-05-05 17:03 49.47200 6.37094 34825 ft 419 kts 138°
2026-05-05 17:04 49.42406 6.42088 34826 ft 418 kts 156°
2026-05-05 17:04 49.37083 6.45697 34825 ft 419 kts 156°
2026-05-05 17:05 49.31749 6.49317 34823 ft 419 kts 156°
2026-05-05 17:05 49.26404 6.52941 34825 ft 420 kts 156°
2026-05-05 17:06 49.21051 6.56570 34827 ft 421 kts 156°
2026-05-05 17:06 49.15692 6.60180 34836 ft 421 kts 156°
2026-05-05 17:07 49.10322 6.63781 34820 ft 422 kts 157°
2026-05-05 17:07 49.04943 6.67393 34828 ft 423 kts 157°
2026-05-05 17:08 48.99557 6.71016 34841 ft 423 kts 155°
2026-05-05 17:08 48.94465 6.75542 34832 ft 424 kts 149°
2026-05-05 17:09 48.89431 6.80237 34829 ft 425 kts 149°
2026-05-05 17:09 48.84392 6.84925 34856 ft 425 kts 150°
2026-05-05 17:10 48.79343 6.89610 34848 ft 425 kts 150°
2026-05-05 17:10 48.74304 6.94297 34847 ft 425 kts 150°
2026-05-05 17:11 48.69266 6.98970 34836 ft 425 kts 150°
2026-05-05 17:11 48.64226 7.03621 34843 ft 424 kts 150°
2026-05-05 17:12 48.59184 7.08262 34850 ft 424 kts 150°
2026-05-05 17:12 48.54138 7.12889 34850 ft 424 kts 150°
2026-05-05 17:13 48.49097 7.17496 34852 ft 424 kts 150°
2026-05-05 17:13 48.43810 7.21321 34849 ft 421 kts 163°
2026-05-05 17:14 48.38236 7.24017 34858 ft 421 kts 163°
2026-05-05 17:14 48.32662 7.26725 34857 ft 421 kts 163°
2026-05-05 17:15 48.27122 7.29403 34854 ft 421 kts 163°
2026-05-05 17:15 48.21511 7.32102 34829 ft 421 kts 164°
2026-05-05 17:16 48.15930 7.34776 34832 ft 421 kts 164°
2026-05-05 17:16 48.10378 7.37433 34832 ft 422 kts 164°
2026-05-05 17:17 48.04749 7.40125 34835 ft 422 kts 164°
2026-05-05 17:17 47.99194 7.42782 34838 ft 422 kts 164°
2026-05-05 17:18 47.93597 7.45445 34839 ft 422 kts 165°
2026-05-05 17:18 47.87998 7.48109 34848 ft 422 kts 165°
2026-05-05 17:19 47.82401 7.50768 34861 ft 423 kts 165°
2026-05-05 17:19 47.76797 7.53411 34868 ft 423 kts 165°
2026-05-05 17:20 47.71275 7.56455 34873 ft 425 kts 159°
2026-05-05 17:20 47.65858 7.59972 34852 ft 425 kts 160°
2026-05-05 17:21 47.60438 7.63495 34860 ft 425 kts 160°
2026-05-05 17:22 47.52307 7.68736 34852 ft 425 kts 160°
2026-05-05 17:22 47.46883 7.72228 34854 ft 426 kts 160°
2026-05-05 17:23 47.41448 7.75722 34863 ft 426 kts 160°
2026-05-05 17:23 47.36002 7.79208 34866 ft 427 kts 160°
2026-05-05 17:24 47.30556 7.82693 34871 ft 427 kts 161°
2026-05-05 17:24 47.25097 7.86164 34876 ft 427 kts 161°
2026-05-05 17:25 47.19631 7.89639 34876 ft 428 kts 161°
2026-05-05 17:25 47.14166 7.93112 34889 ft 428 kts 161°
2026-05-05 17:26 47.08637 7.96604 34898 ft 428 kts 161°
2026-05-05 17:26 47.03220 8.00025 34908 ft 429 kts 161°
2026-05-05 17:27 46.97742 8.03490 34920 ft 429 kts 161°
2026-05-05 17:27 46.92264 8.06946 34928 ft 429 kts 161°
2026-05-05 17:28 46.86773 8.10381 34931 ft 430 kts 162°
2026-05-05 17:28 46.84021 8.12100 34363 ft 432 kts 162°
2026-05-05 17:28 46.81262 8.13825 33123 ft 429 kts 162°
2026-05-05 17:28 46.78589 8.15506 32719 ft 406 kts 162°
2026-05-05 17:29 46.76031 8.17120 31789 ft 400 kts 163°
2026-05-05 17:29 46.73479 8.18711 31456 ft 394 kts 163°
2026-05-05 17:29 46.70994 8.20264 31367 ft 383 kts 163°
2026-05-05 17:29 46.68612 8.21753 31220 ft 374 kts 163°
2026-05-05 17:30 46.66190 8.23259 30812 ft 373 kts 163°
2026-05-05 17:30 46.63829 8.24720 30397 ft 374 kts 163°
2026-05-05 17:30 46.61410 8.26214 29960 ft 373 kts 163°
2026-05-05 17:30 46.59020 8.27691 29507 ft 372 kts 163°
2026-05-05 17:31 46.56675 8.29142 29099 ft 370 kts 163°
2026-05-05 17:31 46.54282 8.30622 28687 ft 368 kts 163°
2026-05-05 17:31 46.51935 8.32071 28284 ft 366 kts 163°
2026-05-05 17:31 46.49602 8.33511 27895 ft 363 kts 163°
2026-05-05 17:32 46.47287 8.34943 27505 ft 360 kts 163°
2026-05-05 17:32 46.44999 8.36359 27128 ft 356 kts 163°
2026-05-05 17:32 46.42740 8.37755 26751 ft 350 kts 163°
2026-05-05 17:32 46.40539 8.39114 26426 ft 347 kts 163°
2026-05-05 17:33 46.38305 8.40489 26054 ft 343 kts 163°
2026-05-05 17:33 46.36141 8.41818 25700 ft 340 kts 163°
2026-05-05 17:33 46.33939 8.43166 25341 ft 338 kts 163°
2026-05-05 17:33 46.31774 8.44490 24998 ft 337 kts 164°
2026-05-05 17:34 46.29650 8.45789 24635 ft 336 kts 164°
2026-05-05 17:34 46.27480 8.46945 24261 ft 329 kts 172°
2026-05-05 17:34 46.25259 8.47538 23884 ft 321 kts 180°
2026-05-05 17:34 46.23046 8.47842 23516 ft 319 kts 180°
2026-05-05 17:35 46.20844 8.48152 23108 ft 317 kts 180°
2026-05-05 17:35 46.18656 8.48464 22730 ft 316 kts 180°
2026-05-05 17:35 46.16477 8.48778 22350 ft 314 kts 180°
2026-05-05 17:35 46.14305 8.49089 21966 ft 312 kts 180°
2026-05-05 17:36 46.12149 8.49404 21578 ft 311 kts 178°
2026-05-05 17:36 46.10020 8.50087 21176 ft 317 kts 167°
2026-05-05 17:36 46.07950 8.51191 20783 ft 316 kts 165°
2026-05-05 17:36 46.05897 8.52298 20369 ft 315 kts 165°
2026-05-05 17:37 46.03844 8.53401 19951 ft 315 kts 165°
2026-05-05 17:37 46.02489 8.54130 19692 ft 313 kts 165°
2026-05-05 17:37 45.99774 8.55596 19158 ft 311 kts 165°
2026-05-05 17:37 45.97754 8.56683 18758 ft 309 kts 165°
2026-05-05 17:38 45.95738 8.57766 18355 ft 309 kts 165°
2026-05-05 17:38 45.93724 8.58846 17899 ft 309 kts 165°
2026-05-05 17:38 45.91722 8.59922 17655 ft 304 kts 165°
2026-05-05 17:38 45.89761 8.61162 17565 ft 314 kts 155°
2026-05-05 17:39 45.87947 8.63010 17061 ft 324 kts 146°
2026-05-05 17:39 45.86204 8.65042 16683 ft 322 kts 146°
2026-05-05 17:39 45.84462 8.67081 16223 ft 322 kts 146°
2026-05-05 17:39 45.82739 8.69095 15841 ft 318 kts 146°
2026-05-05 17:40 45.81025 8.71088 15427 ft 317 kts 146°
2026-05-05 17:40 45.79309 8.73075 15019 ft 316 kts 146°
2026-05-05 17:40 45.77602 8.75051 14628 ft 315 kts 146°
2026-05-05 17:40 45.75862 8.76847 14251 ft 309 kts 155°
2026-05-05 17:41 45.73973 8.78297 13882 ft 308 kts 156°
2026-05-05 17:41 45.72090 8.79740 13468 ft 306 kts 156°
2026-05-05 17:41 45.70218 8.81179 13050 ft 305 kts 155°
2026-05-05 17:41 45.68358 8.82612 12657 ft 303 kts 155°
2026-05-05 17:42 45.66506 8.84038 12276 ft 301 kts 155°
2026-05-05 17:42 45.64688 8.85440 12088 ft 292 kts 155°
2026-05-05 17:42 45.62942 8.86788 11912 ft 277 kts 155°
2026-05-05 17:42 45.61214 8.87852 11174 ft 271 kts 169°
2026-05-05 17:43 45.59982 8.88215 10502 ft 276 kts 172°
2026-05-05 17:43 45.58056 8.88717 9538 ft 283 kts 172°
2026-05-05 17:43 45.56118 8.89232 9126 ft 285 kts 171°
2026-05-05 17:43 45.54189 8.89751 8370 ft 282 kts 171°
2026-05-05 17:44 45.52273 8.90269 7568 ft 280 kts 171°
2026-05-05 17:44 45.50369 8.90785 6790 ft 278 kts 170°
2026-05-05 17:44 45.48480 8.91300 6018 ft 275 kts 170°
2026-05-05 17:44 45.46606 8.91813 5277 ft 272 kts 169°
2026-05-05 17:45 45.44753 8.92321 4673 ft 271 kts 169°
2026-05-05 17:45 45.42893 8.92828 4121 ft 273 kts 169°
2026-05-05 17:45 45.41036 8.93189 3985 ft 266 kts 182°
2026-05-05 17:45 45.39335 8.92676 3980 ft 236 kts 205°
2026-05-05 17:46 45.38006 8.91436 4001 ft 229 kts 224°
2026-05-05 17:46 45.37079 8.89646 4021 ft 227 kts 244°
2026-05-05 17:46 45.36650 8.87491 4006 ft 230 kts 264°
2026-05-05 17:46 45.36712 8.85165 4014 ft 239 kts 277°
2026-05-05 17:47 45.37228 8.82910 4003 ft 242 kts 297°
2026-05-05 17:47 45.38278 8.81043 4006 ft 244 kts 319°
2026-05-05 17:47 45.39738 8.79827 4005 ft 246 kts 340°
2026-05-05 17:47 45.41403 8.79288 4010 ft 246 kts 349°
2026-05-05 17:48 45.43090 8.78833 4006 ft 246 kts 349°
2026-05-05 17:48 45.44774 8.78373 3966 ft 246 kts 349°
2026-05-05 17:48 45.46419 8.77922 3740 ft 237 kts 349°
2026-05-05 17:48 45.48011 8.77485 3447 ft 231 kts 349°
2026-05-05 17:49 45.49570 8.77056 3152 ft 225 kts 349°
2026-05-05 17:49 45.51078 8.76642 2848 ft 219 kts 349°
2026-05-05 17:49 45.52557 8.76235 2566 ft 214 kts 350°
2026-05-05 17:49 45.53981 8.75842 2297 ft 202 kts 350°
2026-05-05 17:50 45.55307 8.75477 2013 ft 186 kts 351°
2026-05-05 17:50 45.56496 8.75148 1798 ft 162 kts 351°
2026-05-05 17:50 45.57556 8.74857 1556 ft 150 kts 350°
2026-05-05 17:50 45.58561 8.74580 1347 ft 145 kts 350°
2026-05-05 17:51 45.59541 8.74310 1150 ft 142 kts 349°
2026-05-05 17:51 45.60508 8.74044 960 ft 140 kts 349°
2026-05-05 17:51 45.61464 8.73781 781 ft 140 kts 349°
2026-05-05 17:51 45.62371 8.73530 722 ft 119 kts 349°
2026-05-05 17:52 45.63027 8.73356 715 ft 72 kts 348°
2026-05-05 17:52 45.63384 8.73250 717 ft 44 kts 349°
2026-05-05 17:52 45.63626 8.73157 720 ft 31 kts 333°
2026-05-05 17:52 45.63787 8.72975 718 ft 24 kts 309°
2026-05-05 17:53 45.63848 8.72851 719 ft 13 kts 309°
2026-05-05 17:53 45.63932 8.72788 716 ft 14 kts 346°
2026-05-05 17:53 45.64036 8.72761 720 ft 16 kts 349°
2026-05-05 17:53 45.64152 8.72730 717 ft 17 kts 349°
2026-05-05 17:54 45.64186 8.72721 716 ft 2 kts 349°
2026-05-05 17:54 45.64203 8.72716 718 ft 4 kts 349°
2026-05-05 17:54 45.64240 8.72705 719 ft 7 kts 349°
2026-05-05 17:54 45.64300 8.72689 717 ft 10 kts 349°
2026-05-05 17:55 45.64382 8.72672 720 ft 13 kts 356°
2026-05-05 17:55 45.64470 8.72626 719 ft 14 kts 297°
2026-05-05 17:55 45.64460 8.72494 716 ft 12 kts 259°
2026-05-05 17:55 45.64459 8.72433 718 ft 1 kts 308°
2026-05-05 17:56 45.64479 8.72419 720 ft 5 kts 340°
2026-05-05 17:56 45.64523 8.72410 718 ft 6 kts 350°
2026-05-05 17:56 45.64539 8.72405 720 ft 0 kts 349°